map of DOH home
DOH - Airport
Location
City:  Doha, Qatar
Name:Hamad International Airport
Old (Alt.):New Doha International Airport
ICAO:OTHH
IATA:DOH

Details
Type:Airport (Aerodrome, Airfield)
Use:Public/Civil, International (customs port of entry)
Latitude:2516'23"N (25.273056)
Longitude:5136'29"E (51.608056)
Elevation:13 ft (4 m)
Variation:2.47E (WMM2015 magnetic declination)
0.05 annual change
Runways:2
Longest:15912 ft (4850 m), paved

Time
Time Zone:UTC+3
Local Time:

Weather
METAR:OTHH 201900Z 32010KT CAVOK 29/19 Q1011 NOSIG
TAF:OTHH 201644Z 2018/2124 34013KT 8000 NSC

Related Locations
Nearby:
Farthest:GMR: 12008 mi / 19326 km
Mangareva [Totegegie], Gambier Islands, PF

Find:

   beyond  
but within

Other Information
Maps:
NOTAMs:
Links:
Sources:

  
flag of Qatar   

Sectional Chart

Flight Planning
at skyvector.com

Satellite Image

Google Maps Satellite view

 

Copyright © 2004-2017 Karl L. Swartz. All rights reserved.
The Great Circle Mapper name and logo are trademarks of the Great Circle Mapper.
All other trademarks mentioned herein belong to their respective owners.
Please see credits for attibutions and further copyright information.

  Follow gcmap on Facebook Follow gcmap on Twitter Follow gcmap on Google+ GCmap on LinkedIn

hCard Microformat

Geo Microformat